Location: Unspecified
(0.0000°N, 0.0000°E)
Time: 10:32:50
(UTC+00:00)

Explorer 11/Cluster Stage 4 - Pass Details

Date: 05 November 2024
Orbit: 464 x 1202 km, 28.8° (Epoch: 05 December)

Event Time Altitude Azimuth Distance (km) Brightness Sun altitude
Exits shadow 03:42:35 24° 66° (ENE) 1,116 7.8 -29.0°
Drops below altitude 10° 03:44:10 10° 63° (ENE) 1,717 8.8 -28.6°
Sets 03:46:13 0° 62° (ENE) 2,543 9.8 -28.1°
